カタログに戻る

FENGYUN 1C DEB

運用中SSO
NORAD 32205·DEBRIS·🇨🇳 China

打ち上げ May 10, 1999 から Taiyuan Satellite Launch Center

Loading…

次のパス (今後24時間)

TLE

経年Source: Space-Track

元期: Sep 7, 2026, 19:19 UTC

1 32205U 99025CVB 26250.80555383  .00000145  00000-0  98764-4 0  9997
2 32205  98.6841 252.0039 0009908 238.8736 296.6727 14.14065800983002

AllMySatでFENGYUN 1C DEBをリアルタイム追跡

Download on the App Store